• Join FlightAware (Why Join?)
  • Login
  • US Flag 
09:19AM EST


 

Airport Tracker/Info


-or-


 

Live Flight TrackerFlight Track Log ✈ AWE3874 ✈ 25-Apr-2013 ✈ KCLT - KMOB

Flight Track Log - Related Links

Times and Time Zones

All times are in EDT time to prevent confusion due to time zone crossing. See the AWE3874 flight status page for this flight to view local times or setup timezone preferences in your user account.

Time Position Orientation Groundspeed Altitude Reporting Facility
EDT Latitude Longitude Course Direction KTS MPH feet Rate Location/Type
01:42PM 35.2444 -80.9608 246° West 171 197 2,100  Level FAA TRACON SMA TRACON (SMA)
01:42PM 35.2608 -80.9753 324° Northwest 198 228 2,600 1,320 Climbing FAA TRACON SMA TRACON (SMA)
01:42PM 35.2753 -80.9889 322° Northwest 222 255 3,000 1,500 Climbing FAA TRACON SMA TRACON (SMA)
01:43PM 35.2850 -81.0089 301° West 240 276 3,600 1,920 Climbing FAA TRACON SMA TRACON (SMA)
01:43PM 35.2858 -81.0408 272° West 252 290 4,300 2,100 Climbing FAA TRACON SMA TRACON (SMA)
01:43PM 35.2864 -81.0656 272° West 253 291 5,000 2,220 Climbing FAA TRACON SMA TRACON (SMA)
01:44PM 35.2667 -81.1991 270° West  Level FlightAware Approximate
01:44PM 35.2856 -81.0939 268° West 254 292 5,800  Level FAA TRACON SMA TRACON (SMA)
01:44PM 35.2858 -81.1272 271° West 255 293 6,500 2,100 Climbing FAA TRACON SMA TRACON (SMA)
01:44PM 35.2864 -81.1547 271° West 258 297 7,200 2,100 Climbing FAA TRACON SMA TRACON (SMA)
01:45PM 35.1763 -81.2554 199° South  Level FlightAware Approximate
01:45PM 35.2875 -81.1894 272° West 263 303 7,900  Level FAA TRACON SMA TRACON (SMA)
01:45PM 35.2883 -81.2178 272° West 268 308 8,000 720 Climbing FAA TRACON SMA TRACON (SMA)
01:45PM 35.2817 -81.2447 253° West 268 308 8,400 1,260 Climbing FAA TRACON SMA TRACON (SMA)
01:46PM 35.0786 -81.2998 251° West  Level FlightAware Approximate
01:46PM 35.2661 -81.2661 228° Southwest 276 318 8,900  Level FAA TRACON SMA TRACON (SMA)
01:46PM 35.2456 -81.2917 225° Southwest 276 318 9,700 2,220 Climbing FAA TRACON SMA TRACON (SMA)
01:46PM 35.2286 -81.3119 224° Southwest 275 316 10,400 1,620 Climbing FAA TRACON SMA TRACON (SMA)
01:47PM 35.0406 -81.4259 246° West  Level FlightAware Approximate
01:47PM 35.2072 -81.3378 225° Southwest 280 322 10,800  Level FAA TRACON SMA TRACON (SMA)
01:47PM 35.1889 -81.3606 225° Southwest 301 346 11,100 900 Climbing FAA TRACON SMA TRACON (SMA)
01:47PM 35.1694 -81.3842 225° Southwest 319 367 11,400 1,200 Climbing FAA TRACON SMA TRACON (SMA)
01:48PM 35.1444 -81.4147 225° Southwest 335 386 11,900 1,500 Climbing FAA TRACON SMA TRACON (SMA)
01:48PM 35.1239 -81.4392 224° Southwest 334 384 12,400 1,320 Climbing FAA TRACON SMA TRACON (SMA)
01:48PM 35.1036 -81.4639 225° Southwest 335 386 12,800 1,500 Climbing FAA TRACON SMA TRACON (SMA)
01:49PM 35.0775 -81.4947 224° Southwest 338 389 13,400 1,680 Climbing FAA TRACON SMA TRACON (SMA)
01:49PM 35.0569 -81.5200 225° Southwest 339 390 13,900 1,380 Climbing FAA TRACON SMA TRACON (SMA)
01:49PM 35.0361 -81.5450 224° Southwest 340 391 14,300 1,500 Climbing FAA TRACON SMA TRACON (SMA)
01:50PM 35.0100 -81.5764 225° Southwest 342 394 14,900 1,620 Climbing FAA TRACON SMA TRACON (SMA)
01:50PM 34.9942 -81.6058 237° Southwest 335 386 15,400 1,260 Climbing FAA TRACON SMA TRACON (SMA)
01:50PM 34.9842 -81.6383 249° West 335 386 15,800 1,440 Climbing FAA TRACON SMA TRACON (SMA)
01:51PM 34.9706 -81.6789 248° West 336 387 16,400 1,620 Climbing FAA TRACON SMA TRACON (SMA)
01:51PM 34.9606 -81.7114 249° West 332 382 16,900 1,320 Climbing FAA TRACON SMA TRACON (SMA)
01:51PM 34.9506 -81.7436 249° West 332 382 17,300 1,500 Climbing FAA TRACON SMA TRACON (SMA)
01:52PM 34.9386 -81.7842 250° West 331 381 17,900 1,200 Climbing FAA TRACON SMA TRACON (SMA)
01:52PM 34.9272 -81.8153 246° West 329 379 18,100 900 Climbing FAA TRACON SMA TRACON (SMA)
01:52PM 34.9106 -81.8439 235° Southwest 339 390 18,500 1,020 Climbing FAA TRACON SMA TRACON (SMA)
01:53PM 34.8942 -81.8703 233° Southwest 335 386 18,800 1,140 Climbing FAA TRACON SMA TRACON (SMA)
01:53PM 34.8736 -81.9089 237° Southwest 337 388 19,300 1,260 Climbing FAA TRACON SMA TRACON (SMA)
01:53PM 34.8567 -81.9375 234° Southwest 339 390 19,700 1,200 Climbing FAA TRACON SMA TRACON (SMA)
01:54PM 34.8364 -81.9736 236° Southwest 339 390 20,100 900 Climbing FAA TRACON SMA TRACON (SMA)
01:54PM 34.8208 -81.9994 234° Southwest 339 390 20,400 1,020 Climbing Atlanta Center
01:56PM 34.7111 -82.1942 236° Southwest 339 390 22,600 960 Climbing Atlanta Center
01:57PM 34.6583 -82.2914 237° Southwest 339 390 23,400 780 Climbing Atlanta Center
01:58PM 34.6053 -82.3858 236° Southwest 339 390 24,200 660 Climbing Atlanta Center
01:59PM 34.5483 -82.4803 234° Southwest 339 390 24,800 540 Climbing Atlanta Center
02:00PM 34.4931 -82.5794 236° Southwest 344 396 25,300 540 Climbing Atlanta Center
02:01PM 34.4358 -82.6761 234° Southwest 355 409 25,900 660 Climbing Atlanta Center
02:02PM 34.3825 -82.7753 237° Southwest 355 409 26,700 720 Climbing Atlanta Center
02:03PM 34.3231 -82.8692 233° Southwest 355 409 27,400 600 Climbing Atlanta Center
02:04PM 34.2675 -82.9681 236° Southwest 355 409 28,000 300 Climbing Atlanta Center
02:05PM 34.2119 -83.0642 235° Southwest 361 415 28,000  Level Atlanta Center
02:06PM 34.1522 -83.1653 235° Southwest 367 422 28,000  Level Atlanta Center
02:07PM 34.0925 -83.2686 235° Southwest 367 422 28,000  Level Atlanta Center
02:08PM 34.0386 -83.3594 234° Southwest 372 428 28,000  Level Atlanta Center
02:09PM 33.9786 -83.4600 234° Southwest 372 428 28,000  Level Atlanta Center
02:10PM 33.9186 -83.5606 234° Southwest 377 434 28,000  Level Atlanta Center
02:11PM 33.8583 -83.6636 235° Southwest 377 434 28,000  Level Atlanta Center
02:12PM 33.7961 -83.7664 234° Southwest 377 434 28,000  Level Atlanta Center
02:13PM 33.7294 -83.8789 235° Southwest 377 434 28,000  Level Atlanta Center
02:14PM 33.6689 -83.9814 235° Southwest 382 440 28,000  Level Atlanta Center
02:15PM 33.6083 -84.0811 234° Southwest 376 433 28,000  Level Atlanta Center
02:16PM 33.5458 -84.1808 233° Southwest 381 438 28,000  Level Atlanta Center
02:17PM 33.4872 -84.2806 235° Southwest 376 433 28,000  Level Atlanta Center
02:18PM 33.4286 -84.3797 235° Southwest 376 433 28,000  Level Atlanta Center
02:19PM 33.3678 -84.4792 234° Southwest 376 433 28,000  Level Atlanta Center
02:20PM 33.3153 -84.5658 234° Southwest 376 433 28,000  Level Atlanta Center
02:21PM 33.2583 -84.6600 234° Southwest 370 426 28,000  Level Atlanta Center
02:22PM 33.1994 -84.7589 235° Southwest 370 426 28,000  Level Atlanta Center
02:23PM 33.1383 -84.8575 234° Southwest 370 426 28,000  Level Atlanta Center
02:24PM 33.0792 -84.9511 233° Southwest 370 426 28,000  Level Atlanta Center
02:25PM 33.0156 -85.0569 234° Southwest 365 420 28,000  Level Atlanta Center
02:26PM 32.9542 -85.1553 233° Southwest 365 420 28,000  Level Atlanta Center
02:27PM 32.8950 -85.2461 232° Southwest 365 420 28,000  Level Atlanta Center
02:28PM 32.8375 -85.3442 235° Southwest 365 420 28,000  Level Atlanta Center
02:29PM 32.7781 -85.4397 234° Southwest 365 420 28,000  Level Atlanta Center
02:30PM 32.7164 -85.5375 233° Southwest 365 420 28,000  Level Atlanta Center
02:31PM 32.6569 -85.6328 233° Southwest 365 420 28,000  Level Atlanta Center
02:32PM 32.5969 -85.7303 234° Southwest 360 414 28,000  Level Atlanta Center
02:33PM 32.5372 -85.8228 233° Southwest 360 414 28,000  Level Atlanta Center
02:34PM 32.4711 -85.9247 232° Southwest 372 428 28,000  Level Atlanta Center
02:35PM 32.4111 -86.0219 234° Southwest 372 428 28,000  Level Atlanta Center
02:36PM 32.3511 -86.1164 233° Southwest 377 434 28,000  Level Atlanta Center
02:37PM 32.2889 -86.2133 233° Southwest 375 432 28,000  Level Atlanta Center
02:38PM 32.2308 -86.3150 236° Southwest 375 432 28,000  Level Atlanta Center
02:39PM 32.1683 -86.4114 233° Southwest 382 440 28,000 -180 Level Atlanta Center
02:40PM 32.0997 -86.5028 228° Southwest 375 432 27,700 -660 Descending Atlanta Center
02:41PM 32.0289 -86.6014 230° Southwest 382 440 26,700 -960 Descending Atlanta Center
02:42PM 31.9583 -86.6900 227° Southwest 406 467 25,800 -1,020 Descending Atlanta Center
02:43PM 31.8828 -86.7928 229° Southwest 418 481 24,700 -1,080 Descending Atlanta Center
02:44PM 31.8053 -86.9006 230° Southwest 428 493 23,700 -1,140 Descending Atlanta Center
02:46PM 31.6739 -87.0819 230° Southwest 426 490 21,700 -1,320 Descending Houston Center
02:47PM 31.5992 -87.1833 229° Southwest 412 474 20,200 -1,500 Descending Houston Center
02:48PM 31.5272 -87.2817 229° Southwest 399 459 18,700 -1,380 Descending Houston Center
02:49PM 31.4558 -87.3775 229° Southwest 392 451 17,400 -1,140 Descending Houston Center
02:50PM 31.3897 -87.4692 230° Southwest 372 428 16,400 -1,260 Descending Houston Center
02:51PM 31.3147 -87.5708 229° Southwest 347 399 14,800 -1,500 Descending Houston Center
02:52PM 31.2519 -87.6558 229° Southwest 344 396 13,400 -1,200 Descending Houston Center
02:53PM 31.1872 -87.7433 229° Southwest 353 406 12,400 -1,020 Descending Houston Center
02:54PM 31.1214 -87.8322 229° Southwest 360 414 11,400 -840 Descending Houston Center
02:55PM 31.0478 -87.9125 223° Southwest 361 415 10,700 -900 Descending Houston Center
02:56PM 30.9700 -87.9608 208° Southwest 320 368 9,600 -1,380 Descending Houston Center
02:57PM 30.9014 -88.0031 208° Southwest 286 329 7,900 -2,040 Descending Houston Center
02:58PM 30.8211 -88.0522 208° Southwest 271 312 5,500 -1,440 Descending Houston Center
02:59PM 30.7572 -88.0922 208° Southwest 265 305 5,000 -960 Descending Houston Center
03:00PM 30.7008 -88.1258 207° Southwest 241 277 3,500 -1,320 Descending Houston Center
03:01PM 30.6472 -88.1619 210° Southwest 229 264 2,300 -1,140 Descending Houston Center
03:02PM 30.6481 -88.2050 271° West 179 206 1,200 -960 Descending Houston Center
03:03PM 30.6783 -88.2342 320° Northwest 155 178 400 -780 Descending Houston Center
03:05PM 30.6914 -88.2428 120° Southeast  Level Estimated
03:12PM 30.6914 -88.2428 103° East  Level Estimated